Terminal Aerodrome Forecast
Issued by NWS Tulsa, OK

Home | Current Version | Previous Version | Text Only | Print | Product List | Glossary On
Versions: 1 2 3 4 5 6 7 8 9 10 11 12 13 14 15 16 17
000
FTUS44 KTSA 261700
TAFTUL
TAF
KTUL 261725Z 2618/2718 35013G21KT P6SM FEW050
     FM270000 13004KT P6SM SCT100
     FM271000 01011KT P6SM BKN060=

USA.gov is the U.S. government's official web portal to all federal, state and local government web resources and services.